,,PA_Meas_PMT16A,,PR_Meas_QMR101_102,,RH_Meas_QMH101,,SR_Meas_QMS101,,TA_Meas_QMH101,,GenWind,,GenWind,
time,status,PA,status,PR,status,RH,status,SR,status,TA,status,DirAvg,status,SpdAvg,
2014-02-01, 07:08:04,VALID,917.476,VALID,0,VALID,91.4734,VALID,49.5304,VALID,18.1264,VALID,137,VALID,1.43047,
2014-02-01, 07:09:04,VALID,917.496,VALID,0,VALID,91.3895,VALID,51.3569,VALID,18.1654,VALID,146,VALID,0.83125,
2014-02-01, 07:10:04,VALID,917.488,VALID,0,VALID,91.3209,VALID,53.7206,VALID,18.1835,VALID,142,VALID,0.800391,
2014-02-01, 07:11:04,VALID,917.503,VALID,0,VALID,91.1837,VALID,55.762,VALID,18.242,VALID,142,VALID,0.572656,
2014-02-01, 07:12:04,VALID,917.469,VALID,0,VALID,91.0312,VALID,57.8033,VALID,18.242,VALID,130,VALID,1.40156,
2014-02-01, 07:13:04,VALID,917.524,VALID,0,VALID,90.9397,VALID,59.9522,VALID,18.2211,VALID,117,VALID,0.889844,
2014-02-01, 07:14:04,VALID,917.51,VALID,0,VALID,90.9397,VALID,61.8861,VALID,18.2406,VALID,126,VALID,1.59609,
2014-02-01, 07:15:04,VALID,917.514,VALID,0,VALID,90.9169,VALID,63.82,VALID,18.2796,VALID,132,VALID,1.325,
2014-02-01, 07:16:04,VALID,917.551,VALID,0,VALID,90.8635,VALID,65.9689,VALID,18.3199,VALID,135,VALID,1.18086,
2014-02-01, 07:17:04,VALID,917.565,VALID,0,VALID,90.7644,VALID,67.9028,VALID,18.338,VALID,128,VALID,0.766797,
2014-02-01, 07:18:04,VALID,917.562,VALID,0,VALID,90.6958,VALID,70.374,VALID,18.377,VALID,130,VALID,0.910547,
2014-02-01, 07:19:04,VALID,917.586,VALID,0,VALID,90.5433,VALID,72.093,VALID,18.3965,VALID,144,VALID,1.45781,
2014-02-01, 07:20:04,VALID,917.594,VALID,0,VALID,90.429,VALID,74.6716,VALID,18.3965,VALID,144,VALID,1.17852,
2014-02-01, 07:21:04,VALID,917.601,VALID,0,VALID,90.3146,VALID,77.4651,VALID,18.4369,VALID,129,VALID,0.853906,
2014-02-01, 07:22:04,VALID,917.632,VALID,0,VALID,90.2384,VALID,80.7957,VALID,18.455,VALID,139,VALID,1.20547,
2014-02-01, 07:23:04,VALID,917.648,VALID,0,VALID,90.1316,VALID,84.019,VALID,18.4954,VALID,129,VALID,0.958984,
2014-02-01, 07:24:04,VALID,917.662,VALID,0,VALID,90.0173,VALID,86.5976,VALID,18.5149,VALID,146,VALID,1.17148,
2014-02-01, 07:25:04,VALID,917.641,VALID,0,VALID,89.9334,VALID,89.0687,VALID,18.5539,VALID,159,VALID,1.00898,
2014-02-01, 07:26:04,VALID,917.682,VALID,0,VALID,89.7429,VALID,91.8622,VALID,18.6528,VALID,154,VALID,1.06602,
2014-02-01, 07:27:04,VALID,917.669,VALID,0,VALID,89.4303,VALID,94.978,VALID,18.6708,VALID,160,VALID,0.949219,
2014-02-01, 07:28:04,VALID,917.719,VALID,0,VALID,89.1025,VALID,99.5979,VALID,18.7098,VALID,172,VALID,1.175,
2014-02-01, 07:29:04,VALID,917.716,VALID,0,VALID,88.7442,VALID,105.615,VALID,18.7697,VALID,164,VALID,1.8793,
2014-02-01, 07:30:04,VALID,917.723,VALID,0,VALID,88.5002,VALID,110.342,VALID,18.7683,VALID,162,VALID,1.46289,
2014-02-01, 07:31:04,VALID,917.755,VALID,0,VALID,88.4621,VALID,114.962,VALID,18.8282,VALID,168,VALID,1.3125,
2014-02-01, 07:32:04,VALID,917.747,VALID,0,VALID,88.6222,VALID,118.293,VALID,18.8658,VALID,153,VALID,0.966406,
2014-02-01, 07:33:04,VALID,917.776,VALID,0,VALID,88.241,VALID,121.301,VALID,18.8853,VALID,153,VALID,1.60117,
2014-02-01, 07:34:04,VALID,917.775,VALID,0,VALID,88.1267,VALID,123.128,VALID,18.9647,VALID,147,VALID,1.56602,
2014-02-01, 07:35:04,VALID,917.748,VALID,0,VALID,87.8065,VALID,125.384,VALID,18.9438,VALID,149,VALID,1.1625,
2014-02-01, 07:36:04,VALID,917.762,VALID,0,VALID,87.6922,VALID,128.714,VALID,18.9828,VALID,158,VALID,1.51328,
2014-02-01, 07:37:04,VALID,917.729,VALID,0,VALID,87.2805,VALID,130.863,VALID,19.0413,VALID,156,VALID,1.86641,
2014-02-01, 07:38:04,VALID,917.703,VALID,0,VALID,87.2424,VALID,131.938,VALID,19.1207,VALID,142,VALID,1.35625,
2014-02-01, 07:39:04,VALID,917.716,VALID,0,VALID,87.2805,VALID,131.83,VALID,19.1388,VALID,165,VALID,1.18672,
2014-02-01, 07:40:04,VALID,917.743,VALID,0,VALID,86.9298,VALID,130.541,VALID,19.1778,VALID,155,VALID,1.47969,
2014-02-01, 07:41:04,VALID,917.742,VALID,0,VALID,86.602,VALID,128.929,VALID,19.2558,VALID,153,VALID,1.11367,
2014-02-01, 07:42:04,VALID,917.793,VALID,0,VALID,86.2666,VALID,127.533,VALID,19.2543,VALID,160,VALID,1.92734,
2014-02-01, 07:43:04,VALID,917.814,VALID,0,VALID,86.7468,VALID,138.814,VALID,19.2933,VALID,149,VALID,1.01602,
2014-02-01, 07:44:04,VALID,917.844,VALID,0,VALID,86.7773,VALID,146.765,VALID,19.3338,VALID,118,VALID,0.765625,
2014-02-01, 07:45:04,VALID,917.89,VALID,0,VALID,86.2818,VALID,149.558,VALID,19.3923,VALID,126,VALID,1.09102,
2014-02-01, 07:46:04,VALID,917.89,VALID,0,VALID,86.1217,VALID,151.814,VALID,19.4313,VALID,124,VALID,1.32031,
2014-02-01, 07:47:04,VALID,917.865,VALID,0,VALID,86.0379,VALID,154.285,VALID,19.4493,VALID,133,VALID,1.71094,
2014-02-01, 07:48:04,VALID,917.873,VALID,0,VALID,86.1294,VALID,161.162,VALID,19.5093,VALID,144,VALID,1.42578,
2014-02-01, 07:49:04,VALID,917.842,VALID,0,VALID,85.6186,VALID,166.319,VALID,19.5483,VALID,145,VALID,1.07734,
2014-02-01, 07:50:04,VALID,917.885,VALID,0,VALID,85.3518,VALID,163.955,VALID,19.5858,VALID,139,VALID,1.3375,
2014-02-01, 07:51:04,VALID,917.877,VALID,0,VALID,85.893,VALID,145.153,VALID,19.6443,VALID,123,VALID,0.599609,
2014-02-01, 07:52:04,VALID,917.897,VALID,0,VALID,85.2832,VALID,134.731,VALID,19.7238,VALID,116,VALID,1.6,
2014-02-01, 07:53:04,VALID,917.92,VALID,0,VALID,85.2908,VALID,161.377,VALID,19.7433,VALID,136,VALID,1.29805,
2014-02-01, 07:54:04,VALID,917.904,VALID,0,VALID,85.0545,VALID,164.385,VALID,19.8003,VALID,137,VALID,1.10664,
2014-02-01, 07:55:04,VALID,917.976,VALID,0,VALID,84.3455,VALID,186.84,VALID,19.7808,VALID,137,VALID,1.54805,
2014-02-01, 07:56:04,VALID,917.964,VALID,0,VALID,84.658,VALID,195.006,VALID,19.7808,VALID,145,VALID,1.28789,
2014-02-01, 07:57:04,VALID,917.941,VALID,0,VALID,84.597,VALID,200.593,VALID,19.8003,VALID,122,VALID,1.86953,
2014-02-01, 07:58:04,VALID,917.996,VALID,0,VALID,84.254,VALID,201.022,VALID,19.8198,VALID,148,VALID,1.43008,
2014-02-01, 07:59:04,VALID,917.997,VALID,0,VALID,84.8105,VALID,197.047,VALID,19.8588,VALID,124,VALID,1.00742,
2014-02-01, 08:00:04,VALID,918.008,VALID,0,VALID,84.01,VALID,198.014,VALID,19.9173,VALID,137,VALID,1.12305,
2014-02-01, 08:01:04,VALID,918.04,VALID,0,VALID,84.3379,VALID,200.27,VALID,20.0538,VALID,118,VALID,0.989453,
2014-02-01, 08:02:04,VALID,918.028,VALID,0,VALID,84.0634,VALID,204.675,VALID,20.1513,VALID,132,VALID,1.05742,
2014-02-01, 08:03:04,VALID,918.019,VALID,0,VALID,82.9885,VALID,205.857,VALID,20.1513,VALID,134,VALID,1.65078,
2014-02-01, 08:04:04,VALID,918.031,VALID,0,VALID,83.1029,VALID,208.436,VALID,20.1903,VALID,165,VALID,0.948828,
2014-02-01, 08:05:04,VALID,918.046,VALID,0,VALID,82.4854,VALID,216.064,VALID,20.2668,VALID,149,VALID,1.04375,
2014-02-01, 08:06:04,VALID,918.083,VALID,0,VALID,82.188,VALID,220.684,VALID,20.2863,VALID,163,VALID,1.4625,
2014-02-01, 08:07:04,VALID,918.092,VALID,0,VALID,81.3876,VALID,226.916,VALID,20.2684,VALID,172,VALID,1.48906,
2014-02-01, 08:08:04,VALID,918.114,VALID,0,VALID,81.5858,VALID,233.685,VALID,20.3479,VALID,146,VALID,1.39375,
2014-02-01, 08:09:04,VALID,918.087,VALID,0,VALID,80.4652,VALID,236.693,VALID,20.3464,VALID,152,VALID,1.63086,
2014-02-01, 08:10:04,VALID,918.108,VALID,0,VALID,81.7764,VALID,238.519,VALID,20.4845,VALID,153,VALID,0.696484,
2014-02-01, 08:11:04,VALID,918.134,VALID,0,VALID,81.3723,VALID,239.486,VALID,20.5609,VALID,137,VALID,0.872266,
2014-02-01, 08:12:04,VALID,918.137,VALID,0,VALID,81.3114,VALID,243.462,VALID,20.6959,VALID,142,VALID,0.59375,
2014-02-01, 08:13:04,VALID,918.156,VALID,0,VALID,80.7548,VALID,246.04,VALID,20.7934,VALID,168,VALID,1.13437,
2014-02-01, 08:14:04,VALID,918.131,VALID,0,VALID,80.6405,VALID,245.181,VALID,20.8519,VALID,143,VALID,0.714063,
2014-02-01, 08:15:04,VALID,918.162,VALID,0,VALID,79.3979,VALID,247.437,VALID,21.0096,VALID,183,VALID,1.15313,
2014-02-01, 08:16:04,VALID,918.166,VALID,0,VALID,78.5517,VALID,249.693,VALID,21.1445,VALID,194,VALID,0.337109,
2014-02-01, 08:17:04,VALID,918.177,VALID,0,VALID,78.262,VALID,250.983,VALID,21.164,VALID,175,VALID,1.01563,
2014-02-01, 08:18:04,VALID,918.179,VALID,0,VALID,78.14,VALID,254.743,VALID,21.125,VALID,157,VALID,1.30664,
2014-02-01, 08:19:04,VALID,918.191,VALID,0,VALID,79.0396,VALID,258.826,VALID,20.9885,VALID,165,VALID,1.71211,
2014-02-01, 08:20:04,VALID,918.193,VALID,0,VALID,78.7499,VALID,263.231,VALID,20.969,VALID,166,VALID,1.4125,
2014-02-01, 08:21:04,VALID,918.223,VALID,0,VALID,79.3674,VALID,266.347,VALID,20.9706,VALID,159,VALID,1.66367,
2014-02-01, 08:22:04,VALID,918.194,VALID,0,VALID,78.5898,VALID,270.107,VALID,20.93,VALID,165,VALID,1.27461,
2014-02-01, 08:23:04,VALID,918.223,VALID,0,VALID,77.21,VALID,274.834,VALID,20.93,VALID,181,VALID,2.45313,
2014-02-01, 08:24:04,VALID,918.193,VALID,0,VALID,78.1629,VALID,283.86,VALID,21.008,VALID,183,VALID,0.948828,
2014-02-01, 08:25:04,VALID,918.205,VALID,0,VALID,77.3243,VALID,286.546,VALID,21.047,VALID,173,VALID,2.4293,
2014-02-01, 08:26:04,VALID,918.203,VALID,0,VALID,78.3382,VALID,287.513,VALID,21.086,VALID,168,VALID,0.676172,
2014-02-01, 08:27:04,VALID,918.248,VALID,0,VALID,78.3001,VALID,285.686,VALID,21.221,VALID,166,VALID,0.455859,
2014-02-01, 08:28:04,VALID,918.275,VALID,0,VALID,76.3866,VALID,285.149,VALID,21.3786,VALID,147,VALID,1.57813,
2014-02-01, 08:29:04,VALID,918.252,VALID,0,VALID,76.1884,VALID,286.008,VALID,21.4762,VALID,154,VALID,0.753906,
2014-02-01, 08:30:04,VALID,918.305,VALID,0,VALID,75.1593,VALID,290.951,VALID,21.5136,VALID,179,VALID,1.60703,
2014-02-01, 08:31:04,VALID,918.318,VALID,0,VALID,74.557,VALID,306.315,VALID,21.6111,VALID,178,VALID,0.647656,
2014-02-01, 08:32:04,VALID,918.317,VALID,0,VALID,75.2126,VALID,312.546,VALID,21.7672,VALID,162,VALID,0.503125,
2014-02-01, 08:33:04,VALID,918.337,VALID,0,VALID,75.3727,VALID,312.976,VALID,21.8274,VALID,192,VALID,1.00859,
2014-02-01, 08:34:04,VALID,918.314,VALID,0,VALID,74.6942,VALID,316.307,VALID,21.964,VALID,132,VALID,0.723047,
2014-02-01, 08:35:04,VALID,918.349,VALID,0,VALID,74.0615,VALID,315.232,VALID,22.042,VALID,156,VALID,1.11836,
2014-02-01, 08:36:04,VALID,918.364,VALID,0,VALID,73.2229,VALID,321.679,VALID,22.0225,VALID,147,VALID,1.23438,
2014-02-01, 08:37:04,VALID,918.38,VALID,0,VALID,73.7413,VALID,325.547,VALID,22.003,VALID,144,VALID,0.793359,
2014-02-01, 08:38:04,VALID,918.399,VALID,0,VALID,73.5812,VALID,330.274,VALID,22.042,VALID,130,VALID,1.47969,
2014-02-01, 08:39:04,VALID,918.415,VALID,0,VALID,74.0767,VALID,328.448,VALID,22.042,VALID,155,VALID,0.719922,
2014-02-01, 08:40:04,VALID,918.374,VALID,0,VALID,74.5265,VALID,336.398,VALID,22.0598,VALID,165,VALID,0.735156,
2014-02-01, 08:41:04,VALID,918.387,VALID,0,VALID,73.9166,VALID,337.795,VALID,22.0615,VALID,156,VALID,0.588281,
2014-02-01, 08:42:04,VALID,918.4,VALID,0,VALID,74.2749,VALID,329.844,VALID,22.1574,VALID,142,VALID,1.34336,
2014-02-01, 08:43:04,VALID,918.404,VALID,0,VALID,73.4287,VALID,338.44,VALID,22.2371,VALID,192,VALID,0.800391,
2014-02-01, 08:44:04,VALID,918.411,VALID,0,VALID,72.7274,VALID,351.118,VALID,22.2371,VALID,174,VALID,1.79766,
2014-02-01, 08:45:04,VALID,918.404,VALID,0,VALID,73.8938,VALID,365.837,VALID,22.1591,VALID,143,VALID,1.19531,
2014-02-01, 08:46:04,VALID,918.433,VALID,0,VALID,72.8112,VALID,368.416,VALID,22.1769,VALID,168,VALID,1.3207,
2014-02-01, 08:47:04,VALID,918.439,VALID,0,VALID,73.787,VALID,365.192,VALID,22.2567,VALID,130,VALID,1.32266,
2014-02-01, 08:48:04,VALID,918.478,VALID,0,VALID,73.5507,VALID,363.903,VALID,22.1379,VALID,108,VALID,1.61836,
2014-02-01, 08:49:04,VALID,918.468,VALID,0,VALID,74.7552,VALID,372.821,VALID,22.0598,VALID,106,VALID,1.05742,
2014-02-01, 08:50:04,VALID,918.482,VALID,0,VALID,75.1669,VALID,384.102,VALID,22.1379,VALID,152,VALID,0.619141,
2014-02-01, 08:51:04,VALID,918.465,VALID,0,VALID,73.5888,VALID,393.235,VALID,22.1769,VALID,125,VALID,1.15195,
2014-02-01, 08:52:04,VALID,918.474,VALID,0,VALID,73.1086,VALID,394.631,VALID,22.333,VALID,134,VALID,0.715234,
2014-02-01, 08:53:04,VALID,918.479,VALID,0,VALID,72.3996,VALID,393.557,VALID,22.5299,VALID,159,VALID,0.850781,
2014-02-01, 08:54:04,VALID,918.444,VALID,0,VALID,72.6893,VALID,396.78,VALID,22.5511,VALID,166,VALID,1.48125,
2014-02-01, 08:55:04,VALID,918.446,VALID,0,VALID,71.5534,VALID,387.863,VALID,22.5494,VALID,171,VALID,1.18164,
2014-02-01, 08:56:04,VALID,918.473,VALID,0,VALID,71.5305,VALID,398.607,VALID,22.6079,VALID,141,VALID,1.75586,
2014-02-01, 08:57:04,VALID,918.464,VALID,0,VALID,70.7529,VALID,392.268,VALID,22.4908,VALID,115,VALID,2.21445,
2014-02-01, 08:58:04,VALID,918.455,VALID,0,VALID,71.5839,VALID,395.061,VALID,22.4518,VALID,142,VALID,0.391797,
2014-02-01, 08:59:04,VALID,918.488,VALID,0,VALID,71.805,VALID,394.739,VALID,22.5689,VALID,170,VALID,1.56875,
2014-02-01, 09:00:04,VALID,918.472,VALID,0,VALID,70.9588,VALID,411.715,VALID,22.6665,VALID,156,VALID,1.29219,
2014-02-01, 09:01:04,VALID,918.487,VALID,0,VALID,71.7211,VALID,413.756,VALID,22.6665,VALID,119,VALID,0.751953,
2014-02-01, 09:02:04,VALID,918.478,VALID,0,VALID,71.439,VALID,412.789,VALID,22.6079,VALID,159,VALID,1.41797,
2014-02-01, 09:03:04,VALID,918.488,VALID,0,VALID,70.8901,VALID,410.21,VALID,22.6665,VALID,139,VALID,1.25859,
2014-02-01, 09:04:04,VALID,918.491,VALID,0,VALID,72.087,VALID,403.979,VALID,22.5884,VALID,135,VALID,0.944141,
2014-02-01, 09:05:04,VALID,918.453,VALID,0,VALID,71.4848,VALID,405.375,VALID,22.6274,VALID,142,VALID,1.16445,
2014-02-01, 09:06:04,VALID,918.472,VALID,0,VALID,72.7198,VALID,422.888,VALID,22.6665,VALID,149,VALID,0.529297,
2014-02-01, 09:07:04,VALID,918.462,VALID,0,VALID,72.0565,VALID,437.393,VALID,22.725,VALID,138,VALID,1.38242,
2014-02-01, 09:08:04,VALID,918.497,VALID,0,VALID,71.0197,VALID,443.41,VALID,22.7836,VALID,173,VALID,0.798047,
2014-02-01, 09:09:04,VALID,918.48,VALID,0,VALID,71.3552,VALID,447.17,VALID,22.9787,VALID,128,VALID,0.832031,
2014-02-01, 09:10:04,VALID,918.488,VALID,0,VALID,70.7834,VALID,441.798,VALID,22.9202,VALID,128,VALID,0.951172,
2014-02-01, 09:11:04,VALID,918.471,VALID,0,VALID,71.1265,VALID,442.335,VALID,23.0356,VALID,166,VALID,1.13047,
2014-02-01, 09:12:04,VALID,918.48,VALID,0,VALID,70.5395,VALID,443.41,VALID,23.1722,VALID,173,VALID,0.771875,
2014-02-01, 09:13:04,VALID,918.503,VALID,0,VALID,69.8381,VALID,446.848,VALID,23.3283,VALID,167,VALID,1.44062,
2014-02-01, 09:14:04,VALID,918.472,VALID,0,VALID,68.6946,VALID,446.096,VALID,23.1331,VALID,132,VALID,1.96602,
2014-02-01, 09:15:04,VALID,918.456,VALID,0,VALID,70.2727,VALID,450.931,VALID,22.9965,VALID,137,VALID,1.27188,
2014-02-01, 09:16:04,VALID,918.478,VALID,0,VALID,70.4251,VALID,453.402,VALID,22.9983,VALID,161,VALID,2.22383,
2014-02-01, 09:17:04,VALID,918.451,VALID,0,VALID,70.9283,VALID,454.369,VALID,22.9983,VALID,176,VALID,1.26289,
2014-02-01, 09:18:04,VALID,918.474,VALID,0,VALID,69.0605,VALID,454.261,VALID,23.0551,VALID,144,VALID,2.27383,
2014-02-01, 09:19:04,VALID,918.464,VALID,0,VALID,70.7834,VALID,453.294,VALID,22.9202,VALID,165,VALID,1.25391,
2014-02-01, 09:20:04,VALID,918.468,VALID,0,VALID,71.2866,VALID,441.691,VALID,22.9965,VALID,163,VALID,1.42773,
2014-02-01, 09:21:04,VALID,918.43,VALID,0,VALID,70.5623,VALID,442.12,VALID,23.1739,VALID,181,VALID,0.598047,
2014-02-01, 09:22:04,VALID,918.454,VALID,0,VALID,71.0274,VALID,431.591,VALID,23.2307,VALID,142,VALID,1.43633,
2014-02-01, 09:23:04,VALID,918.448,VALID,0,VALID,71.0731,VALID,462.212,VALID,23.2893,VALID,116,VALID,0.480859,
2014-02-01, 09:24:04,VALID,918.461,VALID,0,VALID,69.2435,VALID,443.302,VALID,23.213,VALID,139,VALID,2.73516,
2014-02-01, 09:25:04,VALID,918.455,VALID,0,VALID,71.5305,VALID,452.327,VALID,23.016,VALID,117,VALID,1.475,
2014-02-01, 09:26:04,VALID,918.428,VALID,0,VALID,70.631,VALID,458.237,VALID,23.0746,VALID,116,VALID,1.88125,
2014-02-01, 09:27:04,VALID,918.464,VALID,0,VALID,69.6475,VALID,490.684,VALID,23.0959,VALID,171,VALID,1.79727,
2014-02-01, 09:28:04,VALID,918.43,VALID,0,VALID,70.57,VALID,494.444,VALID,23.1331,VALID,127,VALID,1.47383,
2014-02-01, 09:29:04,VALID,918.433,VALID,0,VALID,70.3413,VALID,500.353,VALID,23.1527,VALID,146,VALID,0.979688,
2014-02-01, 09:30:04,VALID,918.431,VALID,0,VALID,69.6856,VALID,511.312,VALID,23.2502,VALID,135,VALID,1.68555,
2014-02-01, 09:31:04,VALID,918.463,VALID,0,VALID,68.7175,VALID,512.817,VALID,23.2698,VALID,173,VALID,1.31523,
2014-02-01, 09:32:04,VALID,918.446,VALID,0,VALID,69.4493,VALID,514.643,VALID,23.2502,VALID,135,VALID,1.30234,
2014-02-01, 09:33:04,VALID,918.448,VALID,0,VALID,68.6107,VALID,516.147,VALID,23.3088,VALID,155,VALID,1.53906,
2014-02-01, 09:34:04,VALID,918.454,VALID,0,VALID,68.4583,VALID,517.544,VALID,23.3869,VALID,156,VALID,0.942578,
2014-02-01, 09:35:04,VALID,918.482,VALID,0,VALID,69.5789,VALID,526.784,VALID,23.543,VALID,154,VALID,0.860547,
2014-02-01, 09:36:04,VALID,918.474,VALID,0,VALID,68.3439,VALID,538.495,VALID,23.6406,VALID,116,VALID,1.38164,
2014-02-01, 09:37:04,VALID,918.471,VALID,0,VALID,67.1394,VALID,547.628,VALID,23.6406,VALID,170,VALID,1.87812,
2014-02-01, 09:38:04,VALID,918.456,VALID,0,VALID,68.1457,VALID,554.074,VALID,23.5235,VALID,174,VALID,2.47656,
2014-02-01, 09:39:04,VALID,918.424,VALID,0,VALID,68.687,VALID,541.074,VALID,23.4454,VALID,162,VALID,2.13867,
2014-02-01, 09:40:04,VALID,918.441,VALID,0,VALID,68.2753,VALID,535.272,VALID,23.3869,VALID,156,VALID,2.86367,
2014-02-01, 09:41:04,VALID,918.431,VALID,0,VALID,69.1139,VALID,547.842,VALID,23.3265,VALID,181,VALID,1.08516,
2014-02-01, 09:42:04,VALID,918.471,VALID,0,VALID,69.6856,VALID,558.587,VALID,23.5022,VALID,150,VALID,2.22148,
2014-02-01, 09:43:04,VALID,918.472,VALID,0,VALID,65.2641,VALID,556.76,VALID,23.4064,VALID,134,VALID,2.15508,
2014-02-01, 09:44:04,VALID,918.462,VALID,0,VALID,67.0403,VALID,544.834,VALID,23.3674,VALID,170,VALID,2.1332,
2014-02-01, 09:45:04,VALID,918.473,VALID,0,VALID,68.8699,VALID,543.008,VALID,23.4064,VALID,138,VALID,0.975391,
2014-02-01, 09:46:04,VALID,918.479,VALID,0,VALID,68.809,VALID,552.355,VALID,23.5217,VALID,137,VALID,0.921875,
2014-02-01, 09:47:04,VALID,918.512,VALID,0,VALID,68.8471,VALID,552.033,VALID,23.6016,VALID,102,VALID,2.30586,
2014-02-01, 09:48:04,VALID,918.523,VALID,0,VALID,68.8699,VALID,545.264,VALID,23.6016,VALID,130,VALID,2.02578,
2014-02-01, 09:49:04,VALID,918.473,VALID,0,VALID,67.0708,VALID,555.471,VALID,23.4632,VALID,115,VALID,2.31953,
2014-02-01, 09:50:04,VALID,918.487,VALID,0,VALID,68.748,VALID,538.388,VALID,23.3656,VALID,143,VALID,1.77461,
2014-02-01, 09:51:04,VALID,918.45,VALID,0,VALID,68.1305,VALID,468.551,VALID,23.307,VALID,122,VALID,1.85781,
2014-02-01, 09:52:04,VALID,918.495,VALID,0,VALID,70.1583,VALID,552.033,VALID,23.3869,VALID,81,VALID,1.10938,
2014-02-01, 09:53:04,VALID,918.442,VALID,0,VALID,67.9628,VALID,592.968,VALID,23.504,VALID,87,VALID,2.13438,
2014-02-01, 09:54:04,VALID,918.46,VALID,0,VALID,67.3376,VALID,601.778,VALID,23.4454,VALID,149,VALID,2.62383,
2014-02-01, 09:55:04,VALID,918.502,VALID,0,VALID,68.6794,VALID,604.357,VALID,23.465,VALID,115,VALID,2.37617,
2014-02-01, 09:56:04,VALID,918.452,VALID,0,VALID,68.9767,VALID,599.951,VALID,23.465,VALID,145,VALID,1.44453,
2014-02-01, 09:57:04,VALID,918.446,VALID,0,VALID,67.0708,VALID,595.331,VALID,23.6406,VALID,153,VALID,1.13555,
2014-02-01, 09:58:04,VALID,918.437,VALID,0,VALID,65.9349,VALID,587.488,VALID,23.7187,VALID,149,VALID,1.73398,
2014-02-01, 09:59:04,VALID,918.393,VALID,0,VALID,68.8776,VALID,582.976,VALID,23.7791,VALID,67,VALID,2.75781,
2014-02-01, 10:00:04,VALID,918.443,VALID,0,VALID,69.152,VALID,587.273,VALID,23.7773,VALID,71,VALID,2.20352,
2014-02-01, 10:01:04,VALID,918.484,VALID,0,VALID,69.2206,VALID,582.976,VALID,23.8358,VALID,115,VALID,0.932813,
2014-02-01, 10:02:04,VALID,918.408,VALID,0,VALID,69.4646,VALID,607.042,VALID,23.8749,VALID,49,VALID,2.02969,
2014-02-01, 10:03:04,VALID,918.406,VALID,0,VALID,66.7354,VALID,613.811,VALID,23.8358,VALID,160,VALID,2.26328,
2014-02-01, 10:04:04,VALID,918.431,VALID,0,VALID,68.4811,VALID,616.712,VALID,23.8358,VALID,125,VALID,1.99609,
2014-02-01, 10:05:04,VALID,918.398,VALID,0,VALID,67.452,VALID,614.134,VALID,23.7773,VALID,108,VALID,1.70273,
2014-02-01, 10:06:04,VALID,918.444,VALID,0,VALID,66.3237,VALID,611.233,VALID,23.7578,VALID,141,VALID,2.44609,
2014-02-01, 10:07:04,VALID,918.39,VALID,0,VALID,67.574,VALID,606.828,VALID,23.7968,VALID,155,VALID,1.0375,
2014-02-01, 10:08:04,VALID,918.391,VALID,0,VALID,68.8394,VALID,614.671,VALID,23.9743,VALID,112,VALID,1.92891,
2014-02-01, 10:09:04,VALID,918.366,VALID,0,VALID,65.3327,VALID,618.539,VALID,24.0488,VALID,116,VALID,1.52422,
2014-02-01, 10:10:04,VALID,918.365,VALID,0,VALID,65.4699,VALID,614.563,VALID,24.0506,VALID,121,VALID,1.7625,
2014-02-01, 10:11:04,VALID,918.389,VALID,0,VALID,67.0708,VALID,615.638,VALID,24.2068,VALID,124,VALID,1.34883,
2014-02-01, 10:12:04,VALID,918.377,VALID,0,VALID,63.4344,VALID,627.994,VALID,24.4411,VALID,137,VALID,1.83516,
2014-02-01, 10:13:04,VALID,918.381,VALID,0,VALID,64.273,VALID,636.159,VALID,24.4606,VALID,166,VALID,1.72852,
2014-02-01, 10:14:04,VALID,918.384,VALID,0,VALID,64.86,VALID,642.176,VALID,24.4216,VALID,141,VALID,1.34648,
2014-02-01, 10:15:04,VALID,918.386,VALID,0,VALID,65.8816,VALID,635.622,VALID,24.5173,VALID,145,VALID,1.26055,
2014-02-01, 10:16:04,VALID,918.418,VALID,0,VALID,63.5717,VALID,630.465,VALID,24.6168,VALID,156,VALID,1.41406,
2014-02-01, 10:17:04,VALID,918.419,VALID,0,VALID,62.1613,VALID,625.093,VALID,24.734,VALID,118,VALID,2.01992,
2014-02-01, 10:18:04,VALID,918.408,VALID,0,VALID,62.3595,VALID,314.588,VALID,24.5973,VALID,184,VALID,1.80625,
2014-02-01, 10:19:04,VALID,918.377,VALID,0,VALID,62.3138,VALID,290.736,VALID,24.4997,VALID,172,VALID,1.86641,
2014-02-01, 10:20:04,VALID,918.409,VALID,0,VALID,64.6847,VALID,312.009,VALID,24.2458,VALID,133,VALID,2.16602,
2014-02-01, 10:21:04,VALID,918.383,VALID,0,VALID,64.8981,VALID,632.828,VALID,24.0506,VALID,162,VALID,0.957031,
2014-02-01, 10:22:04,VALID,918.385,VALID,0,VALID,64.9972,VALID,656.465,VALID,24.1873,VALID,33,VALID,0.362109,
2014-02-01, 10:23:04,VALID,918.365,VALID,0,VALID,65.1726,VALID,596.083,VALID,24.4606,VALID,33,VALID,0.644531,
2014-02-01, 10:24:04,VALID,918.332,VALID,0,VALID,65.3479,VALID,666.995,VALID,24.773,VALID,33,VALID,1.13789,
2014-02-01, 10:25:04,VALID,918.355,VALID,0,VALID,62.8474,VALID,675.053,VALID,24.7926,VALID,104,VALID,1.18359,
2014-02-01, 10:26:04,VALID,918.34,VALID,0,VALID,64.9668,VALID,652.705,VALID,24.7144,VALID,146,VALID,1.55859,
2014-02-01, 10:27:04,VALID,918.321,VALID,0,VALID,64.5246,VALID,598.34,VALID,24.5973,VALID,148,VALID,2.21172,
2014-02-01, 10:28:04,VALID,918.319,VALID,0,VALID,66.034,VALID,548.595,VALID,24.4587,VALID,142,VALID,2.1957,
2014-02-01, 10:29:04,VALID,918.318,VALID,0,VALID,62.4205,VALID,476.824,VALID,24.2654,VALID,117,VALID,2.98125,
2014-02-01, 10:30:04,VALID,918.312,VALID,0,VALID,65.1497,VALID,408.921,VALID,24.2458,VALID,118,VALID,1.22539,
2014-02-01, 10:31:04,VALID,918.328,VALID,0,VALID,65.0964,VALID,366.912,VALID,24.2654,VALID,132,VALID,1.56133,
2014-02-01, 10:32:04,VALID,918.314,VALID,0,VALID,67.7493,VALID,352.085,VALID,24.4411,VALID,78,VALID,1.40117,
2014-02-01, 10:33:04,VALID,918.337,VALID,0,VALID,63.5259,VALID,369.49,VALID,24.654,VALID,106,VALID,2.07383,
2014-02-01, 10:34:04,VALID,918.294,VALID,0,VALID,64.0214,VALID,399.144,VALID,24.5582,VALID,81,VALID,1.8332,
2014-02-01, 10:35:04,VALID,918.289,VALID,0,VALID,62.6035,VALID,413.111,VALID,24.6149,VALID,66,VALID,2.2168,
2014-02-01, 10:36:04,VALID,918.315,VALID,0,VALID,63.7775,VALID,416.764,VALID,24.5192,VALID,131,VALID,2.7668,
2014-02-01, 10:37:04,VALID,918.301,VALID,0,VALID,62.108,VALID,431.484,VALID,24.4783,VALID,176,VALID,1.61875,
2014-02-01, 10:38:04,VALID,918.292,VALID,0,VALID,63.16,VALID,451.038,VALID,24.5759,VALID,148,VALID,1.67852,
2014-02-01, 10:39:04,VALID,918.262,VALID,0,VALID,62.3443,VALID,476.394,VALID,24.5954,VALID,119,VALID,1.50781,
2014-02-01, 10:40:04,VALID,918.252,VALID,0,VALID,61.2389,VALID,487.568,VALID,24.4978,VALID,81,VALID,2.53281,
2014-02-01, 10:41:04,VALID,918.247,VALID,0,VALID,64.3111,VALID,463.501,VALID,24.4587,VALID,46,VALID,2.13828,
2014-02-01, 10:42:04,VALID,918.281,VALID,0,VALID,64.6008,VALID,429.979,VALID,24.6363,VALID,111,VALID,1.08203,